Find Starlink 1569

NORAD ID: 46039 Int'l Des: 2020-055 Owner: SPXS Country: US Constellation: starlink operational
LEOCIRCULARSTARLINK_TYPE

Live Position

Loading 3D Globe...

About Starlink 1569

Description loading...

Upcoming Passes

Passes for default location (London). Set your location on the main map for personalized predictions.

Altitude History

Loading altitude history...

Two-Line Element Set

1 46039U 20055N 26126.95369494 -.00000455 00000-0 -32279-5 0 9994
2 46039 53.1609 216.0646 0002054 88.1360 271.9876 15.30193096317806
Epoch: May 6, 2026 • Age: 16 hours

Current Status

Altitude 479.6 km
Velocity 7.63 km/s
Sub-Earth Point 49.24°N, 117.93°W
Launch Date Aug 7, 2020
Age 5.7 years
Type internet

Technical Details

Classification Payload
Mass 260.00 kg
Dry Mass 248.00 kg
Total Mass 260.00 kg
Length 0.20 m
Diameter 2.80 m
Span 9.00 m
Shape Box + pan
Manufacturer SPXS
Bus Type Starlink
Phase Status In Orbit
Owner/State SPXS/US

Most Searched